TimeEST,TemperatureF,Dew PointF,Humidity,Sea Level PressureIn,VisibilityMPH,Wind Direction,Wind SpeedMPH,Gust SpeedMPH,PrecipitationIn,Events,Conditions,WindDirDegrees,DateUTC
12:44 AM,21.2,17.6,86,29.71,4.0,WNW,23.0,31.1,N/A,,Overcast,300,2014-01-06 05:44:00
12:53 AM,21.9,17.1,82,29.75,4.0,WNW,17.3,31.1,N/A,,Haze,300,2014-01-06 05:53:00
1:53 AM,18.0,12.9,81,29.82,4.0,West,21.9,31.1,0.00,Snow,Light Snow,280,2014-01-06 06:53:00
2:53 AM,14.0,9.0,80,29.89,4.0,WNW,15.0,26.5,0.00,Snow,Light Snow,290,2014-01-06 07:53:00
3:28 AM,10.4,3.2,73,29.90,7.0,West,24.2,31.1,0.00,,Overcast,280,2014-01-06 08:28:00
3:53 AM,9.0,3.9,80,29.96,3.0,WNW,16.1,23.0,0.00,Snow,Light Snow,290,2014-01-06 08:53:00
4:21 AM,8.6,1.4,73,29.94,2.0,West,18.4,25.3,0.00,Snow,Light Snow,280,2014-01-06 09:21:00
4:29 AM,6.8,1.4,79,29.95,1.5,WNW,15.0,25.3,0.00,Snow,Light Snow,290,2014-01-06 09:29:00
4:38 AM,6.8,1.4,79,29.95,3.0,West,9.2,20.7,0.00,Snow,Light Snow,270,2014-01-06 09:38:00
4:53 AM,5.0,-0.9,76,30.01,6.0,WNW,16.1,26.5,0.00,,Haze,300,2014-01-06 09:53:00
5:53 AM,1.9,-4.0,76,30.05,9.0,West,17.3,23.0,N/A,,Overcast,270,2014-01-06 10:53:00
6:53 AM,1.0,-6.0,72,30.09,10.0,West,19.6,29.9,0.00,,Overcast,270,2014-01-06 11:53:00
7:53 AM,-2.0,-9.9,69,30.13,10.0,West,11.5,20.7,N/A,,Overcast,270,2014-01-06 12:53:00
8:40 AM,-4.0,-11.2,71,30.11,9.0,West,12.7,20.7,N/A,,Mostly Cloudy,280,2014-01-06 13:40:00
8:53 AM,-5.1,-13.0,69,30.17,6.0,West,17.3,25.3,N/A,,Haze,270,2014-01-06 13:53:00
9:08 AM,-5.8,-13.0,71,30.13,10.0,West,17.3,24.2,N/A,,Scattered Clouds,280,2014-01-06 14:08:00
9:29 AM,-5.8,-13.0,71,30.13,10.0,West,12.7,29.9,N/A,,Mostly Cloudy,270,2014-01-06 14:29:00
9:53 AM,-5.1,-14.1,65,30.20,10.0,West,13.8,27.6,N/A,,Overcast,260,2014-01-06 14:53:00
10:53 AM,-6.0,-15.0,65,30.23,9.0,West,21.9,28.8,N/A,,Overcast,260,2014-01-06 15:53:00
11:53 AM,-6.0,-15.0,65,30.22,9.0,West,16.1,24.2,N/A,,Overcast,260,2014-01-06 16:53:00
12:53 PM,-6.0,-15.0,65,30.22,9.0,West,16.1,21.9,N/A,,Overcast,270,2014-01-06 17:53:00
1:53 PM,-5.1,-14.1,65,30.22,6.0,West,16.1,23.0,N/A,,Haze,270,2014-01-06 18:53:00
2:53 PM,-5.1,-16.1,59,30.24,10.0,West,18.4,28.8,N/A,,Overcast,270,2014-01-06 19:53:00
3:53 PM,-5.1,-15.0,62,30.27,9.0,West,17.3,25.3,N/A,,Overcast,280,2014-01-06 20:53:00
4:53 PM,-6.0,-14.1,68,30.30,5.0,West,9.2,19.6,N/A,,Haze,260,2014-01-06 21:53:00
5:13 PM,-5.8,-16.6,60,30.23,10.0,WSW,18.4,28.8,N/A,,Scattered Clouds,250,2014-01-06 22:13:00
5:53 PM,-7.1,-18.9,56,30.32,10.0,West,16.1,24.2,N/A,,Partly Cloudy,260,2014-01-06 22:53:00
6:53 PM,-8.0,-18.0,61,30.35,10.0,West,13.8,26.5,N/A,,Partly Cloudy,270,2014-01-06 23:53:00
7:29 PM,-7.6,-18.4,59,30.28,10.0,West,15.0,27.6,N/A,,Mostly Cloudy,260,2014-01-07 00:29:00
7:43 PM,-7.6,-18.4,59,30.28,10.0,West,15.0,29.9,N/A,,Scattered Clouds,260,2014-01-07 00:43:00
7:53 PM,-8.0,-18.9,59,30.37,10.0,West,18.4,27.6,N/A,,Partly Cloudy,270,2014-01-07 00:53:00
8:09 PM,-7.6,-16.6,65,30.29,10.0,West,10.4,20.7,N/A,,Mostly Cloudy,260,2014-01-07 01:09:00
8:53 PM,-9.0,-18.9,62,30.39,10.0,WSW,15.0,26.5,N/A,,Overcast,250,2014-01-07 01:53:00
9:53 PM,-9.0,-17.0,68,30.40,10.0,WSW,13.8,24.2,N/A,,Overcast,250,2014-01-07 02:53:00
10:53 PM,-9.0,-17.0,68,30.40,10.0,WSW,12.7,25.3,N/A,,Overcast,250,2014-01-07 03:53:00
11:53 PM,-8.0,-16.1,68,30.40,10.0,WSW,15.0,21.9,N/A,,Mostly Cloudy,250,2014-01-07 04:53:00